Regional Weather Roundup
Issued by NWS

Home | Current Version | Previous Version | Graphics & Text | Print | Product List | Glossary Off
Versions: 1 2 3 4 5 6 7 8 9 10 11 12 13 14 15 16 17 18 19 20 21 22 23 24 25 26 27 28 29 30 31 32 33 34 35 36 37 38 39 40 41 42 43 44 45 46 47 48 49 50

000
ASUS43 KMKX 290021
RWRWI

WISCONSIN REGIONAL WEATHER ROUNDUP
NATIONAL WEATHER SERVICE MILWAUKEE/SULLIVAN WI
700 PM CDT SAT MAY 28 2016

NOTE: "FAIR" INDICATES FEW OR NO CLOUDS BELOW 12,000 FEET WITH NO
SIGNIFICANT WEATHER AND/OR OBSTRUCTIONS TO VISIBILITY.

WIZ001-002-006>008-014>016-023>028-290100-
NORTHWEST WISCONSIN

CITY           SKY/WX    TMP DP  RH WIND       PRES   REMARKS
SUPERIOR ARPT  LGT RAIN  51  51 100 NE3       29.81S
6HR MIN TEMP:  49; 6HR MAX TEMP:  58; 6HR PCP:  0.01;

ASHLAND        LGT RAIN  57  55  93 CALM      29.81R
6HR MIN TEMP:  57; 6HR MAX TEMP:  65; 6HR PCP:  0.05;

HAYWARD        LGT RAIN  65  59  81 N7        29.81R
6HR MIN TEMP:  66; 6HR MAX TEMP:  72;

SIREN          CLOUDY    63  61  93 NE6       29.78S
6HR MIN TEMP:  63; 6HR MAX TEMP:  67; 6HR PCP:  0.11;

CUMBERLAND     CLOUDY    63  61  94 N7        29.78S
RICE LAKE      LGT RAIN  61  58  90 CALM      29.79F
6HR MIN TEMP:  61; 6HR MAX TEMP:  70; 6HR PCP:  0.67;

CHETEK         LGT RAIN  62  61  96 CALM      29.77R
6HR MIN TEMP:  62; 6HR MAX TEMP:  73; 6HR PCP:  0.40;

LADYSMITH      DRIZZLE   73  61  67 CALM      29.79S
6HR MIN TEMP:  68; 6HR MAX TEMP:  75; 6HR PCP:  0.10;

EAU CLAIRE     CLOUDY    64  60  87 W8        29.77R
6HR MIN TEMP:  65; 6HR MAX TEMP:  77; 6HR PCP:  0.16;

MENOMONIE      CLOUDY    67  65  96 CALM      29.77F
6HR MIN TEMP:  65; 6HR MAX TEMP:  76; 6HR PCP:  0.35;

NEW RICHMOND   CLOUDY    66  63  88 NW6       29.77R
6HR MIN TEMP:  64; 6HR MAX TEMP:  67; 6HR PCP:  0.15;

OSCEOLA        CLOUDY    64  64 100 N3        29.80R
6HR MIN TEMP:  63; 6HR MAX TEMP:  67; 6HR PCP:  0.26;

$$

WIZ003>005-009-010-017-018-290100-
NORTH CENTRAL WISCONSIN

CITY           SKY/WX    TMP DP  RH WIND       PRES   REMARKS
MANITOWISH WTR NOT AVBL
ARBOR VITAE    SUNNY     69  66  89 W5        29.82S
6HR MIN TEMP:  64; 6HR MAX TEMP:  69; 6HR PCP:  0.73;

WOODRUFF       SUNNY     69  66  89 W5        29.82S
6HR MIN TEMP:  64; 6HR MAX TEMP:  69; 6HR PCP:  0.73;

RHINELANDER    PTSUNNY   74  62  66 W5        29.82R
6HR MIN TEMP:  68; 6HR MAX TEMP:  75; 6HR PCP:  0.10;

EAGLE RIVER      N/A     70  63  79 W9        29.82S
LAND O LAKES   PTSUNNY   67  65  93 W3        29.83R
6HR MIN TEMP:  66; 6HR MAX TEMP:  73; 6HR PCP:  0.28;

PHILLIPS       PTSUNNY   69  65  86 SW3       29.79S
6HR MIN TEMP:  64; 6HR MAX TEMP:  72; 6HR PCP:  0.83;

TOMAHAWK       CLOUDY    73  62  67 CALM      29.82R
6HR MIN TEMP:  67; 6HR MAX TEMP:  74;

MEDFORD        CLOUDY    73  63  69 S6        29.79S
6HR MIN TEMP:  66; 6HR MAX TEMP:  75; 6HR PCP:  0.15;

MERRILL        MOSUNNY  N/A N/A N/A CALM      29.81S
$$

WIZ029-030-035-036-043>047-290100-
CENTRAL WISCONSIN

CITY           SKY/WX    TMP DP  RH WIND       PRES   REMARKS
WAUSAU         PTSUNNY   76  60  57 S3        29.79R
6HR MIN TEMP:  72; 6HR MAX TEMP:  80; 6HR PCP:  0.01;

MOSINEE        SUNNY     72  57  60 S6        29.80S
MARSHFIELD     CLOUDY    75  59  57 S8        29.79S
6HR MIN TEMP:  73; 6HR MAX TEMP:  79; 6HR PCP: TRACE;

STEVENS POINT  CLOUDY    74  59  60 SW5       29.81S
6HR MIN TEMP:  72; 6HR MAX TEMP:  78;

WAUPACA        MOSUNNY   78  64  61 S5        29.80S HX  80
6HR MIN TEMP:  76; 6HR MAX TEMP:  84; 6HR PCP:  0.01;

WAUTOMA        LGT RAIN  76  64  66 SE5       29.80S
6HR MIN TEMP:  75; 6HR MAX TEMP:  82; 6HR PCP: TRACE;

WISC RAPIDS    LGT RAIN  71  64  78 W6        29.81R
6HR MIN TEMP:  72; 6HR MAX TEMP:  81;

CAMP DOUGLAS   CLOUDY    68  68 100 SE6       29.80F
6HR MIN TEMP:  68; 6HR MAX TEMP:  81; 6HR PCP:  0.06;

$$

WIZ011>013-019>022-031-037>040-048>050-290100-
NORTHEAST WISCONSIN

CITY           SKY/WX    TMP DP  RH WIND       PRES   REMARKS
ANTIGO         SUNNY     71  61  70 CALM      29.83S
6HR MIN TEMP:  69; 6HR MAX TEMP:  76;

SHAWANO        PTSUNNY   82  63  52 S5        29.80S HX  83
6HR MIN TEMP:  76; 6HR MAX TEMP:  83;

OCONTO         MOSUNNY   73  67  81 S8        29.81S
6HR MIN TEMP:  72; 6HR MAX TEMP:  82;

STURGEON BAY   NOT AVBL
GREEN BAY      SUNNY     80  63  55 S13G22    29.82R HX  81
6HR MIN TEMP:  76; 6HR MAX TEMP:  81;

MANITOWOC      SUNNY     68  59  73 S20G29    29.86R
6HR MIN TEMP:  68; 6HR MAX TEMP:  70;

APPLETON       PTSUNNY   79  61  53 S18       29.80R HX  80
CLINTONVILLE   MOSUNNY   77  61  57 S8        29.80S
OSHKOSH        SUNNY     77  63  61 S10       29.81S
6HR MIN TEMP:  75; 6HR MAX TEMP:  81;

$$

WIZ032>034-041-042-053>061-290100-
SOUTHWEST WISCONSIN

CITY           SKY/WX    TMP DP  RH WIND       PRES   REMARKS
LA CROSSE      CLOUDY    73  62  68 S12       29.77R
6HR MIN TEMP:  70; 6HR MAX TEMP:  80; 6HR PCP: TRACE;

SPARTA         CLOUDY    67  65  93 SE7       29.80F
6HR MIN TEMP:  66; 6HR MAX TEMP:  80; 6HR PCP:  0.18;

VIROQUA        CLOUDY    68  65  90 S5        29.81R
6HR MIN TEMP:  66; 6HR MAX TEMP:  77; 6HR PCP:  0.09;

BOSCOBEL       LGT RAIN  70  66  87 VRB3      29.81R
6HR MIN TEMP:  69; 6HR MAX TEMP:  83; 6HR PCP:  0.20;

PRAIRIE DU CHI MOSUNNY   71  62  71 S3        29.80R
6HR MIN TEMP:  68; 6HR MAX TEMP:  80; 6HR PCP:  0.07;

PLATTEVILLE    MOSUNNY   69  66  92 S8        29.83R
6HR MIN TEMP:  64; 6HR MAX TEMP:  81; 6HR PCP:  0.57;

$$

WIZ056-057-062-063-064-067-068-290100-
SOUTH CENTRAL WISCONSIN

CITY           SKY/WX    TMP DP  RH WIND       PRES   REMARKS
REEDSBURG      CLOUDY    70  63  80 SW5       29.83R
6HR MIN TEMP:  70; 6HR MAX TEMP:  81;

BARABOO/DELLS  CLOUDY    68  62  81 S9G16     29.84R
6HR MIN TEMP:  68; 6HR MAX TEMP:  81;

LONE ROCK      CLOUDY    70  63  78 S7        29.82R
6HR MIN TEMP:  69; 6HR MAX TEMP:  84; 6HR PCP:  0.03;

MINERAL POINT  LGT RAIN  66  64  94 SW5       29.83
MADISON        CLOUDY    67  61  81 SW8       29.83R THUNDER
6HR MIN TEMP:  67; 6HR MAX TEMP:  83; 6HR PCP:  0.15;

MIDDLETON      CLOUDY    66  63  87 S5        29.85R
6HR MIN TEMP:  66; 6HR MAX TEMP:  84; 6HR PCP:  0.13;

WATERTOWN      MOSUNNY   79  64  59 S13G18    29.82S HX  81
6HR MIN TEMP:  77; 6HR MAX TEMP:  83;

MONROE         CLOUDY    70  61  73 S17G24    29.84R
JANESVILLE     RAIN      72  61  68 SW17G28   29.88R FOG
$$

WIZ051-052-058>065-066-070>072-290100-
SOUTHEAST WISCONSIN

CITY           SKY/WX    TMP DP  RH WIND       PRES   REMARKS
MILWAUKEE      MOSUNNY   76  63  64 SE10      29.86R
6HR MIN TEMP:  75; 6HR MAX TEMP:  82;

WAUKESHA       MOSUNNY   79  61  53 S9G21     29.86S HX  80
MILWAUKEE/TIMM SUNNY     79  59  50 S14G20    29.86R HX  80
RACINE         SUNNY     73  60  63 S10       29.89R
6HR MIN TEMP:  71; 6HR MAX TEMP:  80;

BURLINGTON     MOSUNNY   81  61  51 S8        29.86R HX  82
6HR MIN TEMP:  74; 6HR MAX TEMP:  83;

KENOSHA        SUNNY     80  64  58 S10       29.87R HX  82
6HR MIN TEMP:  75; 6HR MAX TEMP:  82;

FOND DU LAC    SUNNY     79  64  60 S12       29.82S HX  81
6HR MIN TEMP:  76; 6HR MAX TEMP:  82;

SHEBOYGAN      SUNNY     72  62  71 S15G24    29.86R
6HR MIN TEMP:  72; 6HR MAX TEMP:  77;

WEST BEND      SUNNY     79  61  53 S12       29.85S HX  80
JUNEAU         SUNNY     77  63  61 S15       29.84S
6HR MIN TEMP:  76; 6HR MAX TEMP:  81;

$$

LSZ147-162-290100-
LAKE SUPERIOR

STATION/POSITION TIME  TEMP    WIND        PRES    WAVE
                       AIR SEA DIR/SP/G            HT/PER
                 (UTC) (F)     (DEG/KT/KT) (MB)    (FT/S)
W MID LAKE BUOY  2350   40 38  230/  2/  2 1009.7R   1/ 4
DEVILS ISLAND    0000   45     310/  5/  5 1010.0R
PORT WING        2300   47      40/  1/  2 1009.8
SAXON HARBOR     2300   49     130/  2/  2 1009.1
$$

LMZ867-665-643>646-290100-
LAKE MICHIGAN

STATION/POSITION TIME  TEMP    WIND        PRES    WAVE
                       AIR SEA DIR/SP/G            HT/PER
                 (UTC) (F)     (DEG/KT/KT) (MB)    (FT/S)
CHAMBERS ISLAND  2340   70     150/  7/ 14 1010.2R
N MID LAKE BUOY  2350   54 47  190/ 16/ 17 1010.9R   4/ 6
NORTHPORT PIER   23C1F1C2F2C3F3C4F4C5F5C6F6C7F7C8M1C9M2Ca!



USA.gov is the U.S. government's official web portal to all federal, state and local government web resources and services.